This is the latest recevied weather packets stored in our database for station/object HB9TVK-13. If no packets are shown the sender has not sent any weather packets the latest 10 day(s).
| Time | Temp. | Humidity | Pressure | Rain* | Wind** | Luminosity | Snow |
|---|---|---|---|---|---|---|---|
| 1777084037 | 10° C | 49% | 1018.8 hPa | 0 mm | - | - | - |
| 1777083437 | 10.56° C | 49% | 1018.8 hPa | 0 mm | - | - | - |
| 1777082837 | 10° C | 50% | 1018.7 hPa | 0 mm | - | - | - |
| 1777082235 | 10° C | 52% | 1018.7 hPa | 0 mm | - | - | - |
| 1777081636 | 10° C | 52% | 1018.8 hPa | 0 mm | - | - | - |
| 1777081036 | 9.44° C | 54% | 1018.8 hPa | 0 mm | - | - | - |
| 1777080437 | 9.44° C | 54% | 1018.8 hPa | 0 mm | - | - | - |
| 1777079837 | 9.44° C | 54% | 1018.9 hPa | 0 mm | - | - | - |
| 1777079237 | 10.56° C | 52% | 1019 hPa | 0 mm | - | - | - |
| 1777078638 | 10.56° C | 50% | 1019 hPa | 0 mm | - | - | - |
| 1777078035 | 11.11° C | 48% | 1019 hPa | 0 mm | - | - | - |
| 1777077436 | 11.67° C | 48% | 1019 hPa | 0 mm | - | - | - |
| 1777076836 | 11.67° C | 47% | 1018.9 hPa | 0 mm | - | - | - |
| 1777076236 | 12.22° C | 46% | 1019.1 hPa | 0 mm | - | - | - |
| 1777075637 | 12.22° C | 46% | 1019.2 hPa | 0 mm | - | - | - |
| 1777075038 | 12.22° C | 46% | 1019.3 hPa | 0 mm | - | - | - |
| 1777074438 | 12.22° C | 45% | 1019.4 hPa | 0 mm | - | - | - |
| 1777073835 | 12.22° C | 45% | 1019.4 hPa | 0 mm | - | - | - |
| 1777073235 | 12.22° C | 45% | 1019.5 hPa | 0 mm | - | - | - |
| 1777072636 | 12.22° C | 46% | 1019.5 hPa | 0 mm | - | - | - |
| 1777072036 | 12.78° C | 46% | 1019.6 hPa | 0 mm | - | - | - |
| 1777071437 | 12.78° C | 47% | 1019.6 hPa | 0 mm | - | - | - |
| 1777070837 | 12.78° C | 47% | 1019.5 hPa | 0 mm | - | - | - |
| 1777070238 | 12.78° C | 47% | 1019.6 hPa | 0 mm | - | - | - |
| 1777069636 | 12.78° C | 47% | 1019.6 hPa | 0 mm | - | - | - |
* Rain latest hour (hover to see other rain measurements)
** Current wind speed in m/s (hover to see current wind gust speed)